Location: Key Biscayne
(25.6930°N, 80.1630°W)
Time: 10:16:39
(UTC-04:00)

CZ-2D R/B - Visible Passes

Search period start: 05 September 2015 00:00
Search period end: 15 September 2015 00:00
Orbit: 527 x 547 km, 97.6° (Epoch: 04 September)

Date Brightness Start Highest point End Pass type
(mag) Time Alt. Az. Time Alt. Az. Time Alt. Az.
05 Sep 3.7 20:42:29 28° SE 20:43:56 40° ENE 20:47:33 10° N visible
06 Sep 4.0 20:34:24 24° ESE 20:35:48 31° ENE 20:39:14 10° NNE visible
06 Sep 6.4 22:09:51 10° WSW 22:10:25 10° W 22:11:03 10° W visible
07 Sep 4.4 20:26:19 19° ESE 20:27:40 24° ENE 20:30:49 10° NNE visible
07 Sep 6.1 22:01:46 14° WSW 22:02:11 14° W 22:04:07 10° WNW visible
08 Sep 4.7 20:18:14 16° E 20:19:32 19° ENE 20:22:19 10° NNE visible
08 Sep 5.8 21:53:42 18° W 21:53:58 18° W 21:56:33 10° NW visible
09 Sep 5.0 20:10:09 13° E 20:11:25 15° ENE 20:13:40 10° NE visible
09 Sep 5.4 21:45:36 23° W 21:45:45 23° W 21:48:48 10° NW visible
10 Sep 5.3 20:02:11 10° E 20:03:17 11° ENE 20:04:38 10° NE visible
10 Sep 5.0 21:37:32 30° W 21:37:33 30° W 21:40:55 10° NW visible
11 Sep 4.5 21:29:26 39° W 21:29:26 39° W 21:32:58 10° NNW visible
12 Sep 3.9 21:21:22 52° W 21:21:22 52° W 21:24:56 10° NNW visible
13 Sep 3.5 21:13:17 68° WNW 21:13:17 68° WNW 21:16:50 10° NNW visible
14 Sep 3.2 21:05:12 73° N 21:05:12 73° N 21:08:41 10° N visible
